Weather History for Emporia, KS

Change the Weather History Date:

Monday, February 24, 2014

  Actual Average Record
Temperature  
Mean Temperature 29 °F 38 °F  
Max Temperature 41 °F 49 °F 69 °F (2002)
Min Temperature 17 °F 27 °F 1 °F (2003)
Degree Days  
Heating Degree Days 36 27  
Month to date heating degree days 895 729  
Since 1 July heating degree days 4166 3717  
Cooling Degree Days 0 0  
Month to date cooling degree days 0 0  
Year to date cooling degree days 0 0  
Moisture  
Dew Point 15 °F    
Average Humidity 61    
Maximum Humidity 84    
Minimum Humidity 37    
Precipitation  
Precipitation 0.00 in 0.04 in 0.85 in (2011)
Month to date precipitation 0.28 1.06  
Year to date precipitation 0.48 1.69  
Sea Level Pressure  
Sea Level Pressure 30.27 in    
Wind  
Wind Speed 9 mph (ENE)    
Max Wind Speed 17 mph    
Max Gust Speed 25 mph    
Visibility 10 miles    
Events      
T = Trace of Precipitation, MM = Missing Value Source: NWS Daily Summary

Daily Weather History Graph

Daily Weather History Graph

Search for Another Location

Airport:

Trip Planner

Search our weather history database for the weather conditions in past years. The results will help you decide how hot, cold, wet, or windy it might be!

Date:

Astronomy

Feb. 24, 2014 Rise Set
Actual Time 7:03 AM CST 6:12 PM CST
Civil Twilight 6:36 AM CST 6:39 PM CST
Nautical Twilight 6:06 AM CST 7:10 PM CST
Astronomical Twilight 5:35 AM CST 7:40 PM CST
Moon 3:00 AM CST (2/24) 1:17 PM CST (2/24)
Length of Visible Light 12h 02m
Length of Day
11h 09m
Waning Crescent, 28% of the Moon is Illuminated
Feb 24
Waning Crescent
Mar 1
New
Mar 8
First Quarter
Mar 16
Full
Mar 23
Last Quarter

Hourly Weather History & Observations

Time (CST) Temp. Windchill Dew Point Humidity Pressure Visibility Wind Dir Wind Speed Gust Speed Precip Events Conditions
12:53 AM 19.9 °F 11.1 °F 14.0 °F 78% 30.35 in 10.0 mi NE 6.9 mph - N/A   Clear
1:53 AM 19.9 °F 12.1 °F 14.0 °F 78% 30.34 in 10.0 mi NE 5.8 mph - N/A   Clear
2:53 AM 19.0 °F 10.0 °F 14.0 °F 81% 30.35 in 10.0 mi NNE 6.9 mph - N/A   Clear
3:53 AM 19.0 °F 11.1 °F 14.0 °F 81% 30.35 in 10.0 mi NNE 5.8 mph - N/A   Clear
4:53 AM 18.0 °F 9.8 °F 14.0 °F 84% 30.33 in 10.0 mi ENE 5.8 mph - N/A   Scattered Clouds
5:53 AM 19.0 °F 11.1 °F 14.0 °F 81% 30.34 in 10.0 mi NE 5.8 mph - N/A   Clear
6:53 AM 18.0 °F 11.1 °F 12.9 °F 81% 30.35 in 10.0 mi ENE 4.6 mph - N/A   Clear
7:53 AM 21.0 °F 12.4 °F 15.1 °F 78% 30.35 in 10.0 mi East 6.9 mph - N/A   Clear
8:53 AM 26.1 °F 14.0 °F 15.1 °F 63% 30.36 in 10.0 mi East 15.0 mph - N/A   Clear
9:53 AM 30.0 °F 19.1 °F 15.1 °F 54% 30.35 in 10.0 mi East 15.0 mph 23.0 mph N/A   Clear
10:53 AM 33.1 °F 23.4 °F 15.1 °F 48% 30.33 in 10.0 mi East 13.8 mph 20.7 mph N/A   Clear
11:53 AM 36.0 °F 27.1 °F 15.1 °F 43% 30.30 in 10.0 mi ESE 13.8 mph 24.2 mph N/A   Clear
12:53 PM 37.9 °F 30.5 °F 15.1 °F 39% 30.25 in 10.0 mi ESE 11.5 mph 21.9 mph N/A   Overcast
1:53 PM 39.9 °F 32.9 °F 15.1 °F 36% 30.20 in 10.0 mi ESE 11.5 mph 20.7 mph N/A   Mostly Cloudy
2:53 PM 39.0 °F 32.3 °F 15.1 °F 38% 30.18 in 10.0 mi ESE 10.4 mph - N/A   Overcast
3:53 PM 39.0 °F 31.8 °F 15.1 °F 38% 30.16 in 10.0 mi ESE 11.5 mph - N/A   Overcast
4:53 PM 39.9 °F 33.4 °F 16.0 °F 38% 30.14 in 10.0 mi East 10.4 mph - N/A   Clear
5:53 PM 36.0 °F 29.0 °F 17.1 °F 46% 30.13 in 10.0 mi East 9.2 mph - N/A   Clear
6:53 PM 33.1 °F 26.1 °F 17.1 °F 52% 30.14 in 10.0 mi ENE 8.1 mph - N/A   Clear
7:53 PM 30.9 °F 23.5 °F 17.1 °F 57% 30.18 in 10.0 mi NE 8.1 mph - N/A   Clear
8:53 PM 28.0 °F 20.8 °F 17.1 °F 63% 30.22 in 10.0 mi NNE 6.9 mph - N/A   Clear
9:53 PM 28.0 °F 20.0 °F 17.1 °F 63% 30.24 in 10.0 mi NE 8.1 mph - N/A   Clear
10:53 PM 30.0 °F 23.2 °F 17.1 °F 59% 30.27 in 10.0 mi NE 6.9 mph - N/A   Overcast
11:53 PM 27.0 °F 20.5 °F 16.0 °F 63% 30.26 in 10.0 mi NE 5.8 mph - N/A   Clear